Winchester, VA

5:32 PM EST on February 23, 2017 (GMT -0500)
Winchester Regional

Weather History for KOKV - December, 2012

Change the Weather History Date:

Saturday, December 22, 2012

  Actual Average Record
Temperature  
Mean Temperature 36 °F -  
Max Temperature 39 °F 41 °F 69 °F (2013)
Min Temperature 32 °F 25 °F 0 °F (1989)
Degree Days  
Heating Degree Days 30    
Moisture  
Dew Point 24 °F    
Average Humidity 65    
Maximum Humidity 75    
Minimum Humidity 52    
Precipitation  
Precipitation 0.00 in - - ()
Sea Level Pressure  
Sea Level Pressure 29.85 in    
Wind  
Wind Speed 22 mph (WNW)    
Max Wind Speed 33 mph    
Max Gust Speed 46 mph    
Visibility 10 miles    
Events      
Averages and records for this station are not official NWS values.
T = Trace of Precipitation, MM = Missing Value Source: NWS Daily Summary

Daily Weather History Graph

Daily Weather History Graph

Search for Another Location

Airport or City:

Trip Planner

Search our weather history database for the weather conditions in past years. The results will help you decide how hot, cold, wet, or windy it might be!

Date:

Astronomy

Dec. 22, 2012 Rise Set
Actual Time 7:28 AM EST 4:53 PM EST
Civil Twilight 6:58 AM EST 5:24 PM EST
Nautical Twilight 6:25 AM EST 5:57 PM EST
Astronomical Twilight 5:52 AM EST 6:30 PM EST
Moon 1:09 PM EST (12/22) 2:13 AM EST (12/22)
Length of Visible Light 10h 25m
Length of Day
9h 24m
Waxing Gibbous, 73% of the Moon is Illuminated
Dec 22
Waxing Gibbous
Dec 28
Full
Jan 4
Last Quarter
Jan 11
New
Jan 18
First Quarter

Hourly Weather History & Observations

Time (EST) Temp. Windchill Dew Point Humidity Pressure Visibility Wind Dir Wind Speed Gust Speed Precip Events Conditions
12:15 AM 33.8 °F 21.3 °F 23.0 °F 65% 29.57 in 10.0 mi West 24.2 mph 40.3 mph N/A   Mostly Cloudy
12:35 AM 35.6 °F 23.4 °F 24.8 °F 65% 29.59 in 10.0 mi West 25.3 mph 43.7 mph N/A   Mostly Cloudy
12:55 AM 33.8 °F 20.5 °F 24.8 °F 70% 29.58 in 10.0 mi WNW 27.6 mph 34.5 mph N/A   Mostly Cloudy
1:15 AM 33.8 °F 20.3 °F 24.8 °F 70% 29.58 in 10.0 mi WNW 28.8 mph 38.0 mph N/A   Mostly Cloudy
1:35 AM 35.6 °F 22.1 °F 24.8 °F 65% 29.58 in 10.0 mi WNW 32.2 mph 42.6 mph N/A   Mostly Cloudy
1:55 AM 33.8 °F 21.3 °F 24.8 °F 70% 29.59 in 10.0 mi WNW 24.2 mph 39.1 mph N/A   Mostly Cloudy
2:15 AM 33.8 °F 20.1 °F 26.6 °F 75% 29.60 in 10.0 mi WNW 29.9 mph 38.0 mph N/A   Mostly Cloudy
2:35 AM 35.6 °F 25.5 °F 26.6 °F 70% 29.62 in 10.0 mi West 17.3 mph 29.9 mph N/A   Overcast
2:55 AM 35.6 °F 26.2 °F 26.6 °F 70% 29.64 in 10.0 mi NW 15.0 mph 36.8 mph N/A   Overcast
3:15 AM 35.6 °F 25.5 °F 26.6 °F 70% 29.65 in 10.0 mi WNW 17.3 mph 35.7 mph N/A   Overcast
3:35 AM 35.6 °F 24.2 °F 26.6 °F 70% 29.64 in 10.0 mi WNW 21.9 mph 34.5 mph N/A   Overcast
4:15 AM 35.6 °F 23.2 °F 26.6 °F 70% 29.66 in 10.0 mi WNW 26.5 mph 40.3 mph N/A   Overcast
4:35 AM 35.6 °F 22.1 °F 26.6 °F 70% 29.67 in 10.0 mi WNW 32.2 mph 43.7 mph N/A   Overcast
4:55 AM 35.6 °F 23.2 °F 24.8 °F 65% 29.68 in 10.0 mi WNW 26.5 mph 46.0 mph N/A   Overcast
5:15 AM 35.6 °F 24.2 °F 24.8 °F 65% 29.69 in 10.0 mi WNW 21.9 mph 36.8 mph N/A   Overcast
5:35 AM 35.6 °F 22.5 °F 24.8 °F 65% 29.70 in 10.0 mi WNW 29.9 mph 40.3 mph N/A   Overcast
5:55 AM 35.6 °F 24.5 °F 24.8 °F 65% 29.72 in 10.0 mi WNW 20.7 mph 40.3 mph N/A   Overcast
6:15 AM 35.6 °F 22.7 °F 24.8 °F 65% 29.73 in 10.0 mi NW 28.8 mph 46.0 mph N/A   Overcast
6:35 AM 33.8 °F 21.0 °F 26.6 °F 75% 29.75 in 10.0 mi WNW 25.3 mph 39.1 mph N/A   Overcast
6:55 AM 33.8 °F 21.6 °F 26.6 °F 75% 29.76 in 10.0 mi WNW 23.0 mph 34.5 mph N/A   Overcast
7:15 AM 33.8 °F 21.9 °F 26.6 °F 75% 29.78 in 10.0 mi WNW 21.9 mph 34.5 mph N/A   Overcast
7:35 AM 33.8 °F 20.3 °F 26.6 °F 75% 29.79 in 10.0 mi WNW 28.8 mph 35.7 mph N/A   Overcast
7:55 AM 33.8 °F 22.2 °F 23.0 °F 65% 29.80 in 10.0 mi WNW 20.7 mph 35.7 mph N/A   Overcast
8:15 AM 33.8 °F 22.2 °F 23.0 °F 65% 29.82 in 10.0 mi WNW 20.7 mph 41.4 mph N/A   Overcast
8:35 AM 33.8 °F 20.5 °F 23.0 °F 65% 29.83 in 10.0 mi WNW 27.6 mph 35.7 mph N/A   Overcast
8:55 AM 33.8 °F 22.5 °F 23.0 °F 65% 29.85 in 10.0 mi WNW 19.6 mph 31.1 mph N/A   Overcast
9:15 AM 33.8 °F 20.5 °F 23.0 °F 65% 29.85 in 10.0 mi NW 27.6 mph 35.7 mph N/A   Overcast
9:35 AM 35.6 °F 22.5 °F 23.0 °F 60% 29.86 in 10.0 mi WNW 29.9 mph 38.0 mph N/A   Mostly Cloudy
9:55 AM 35.6 °F 24.2 °F 23.0 °F 60% 29.88 in 10.0 mi WNW 21.9 mph 35.7 mph N/A   Mostly Cloudy
10:15 AM 35.6 °F 24.2 °F 23.0 °F 60% 29.89 in 10.0 mi West 21.9 mph 36.8 mph N/A   Overcast
10:35 AM 35.6 °F 23.7 °F 23.0 °F 60% 29.90 in 10.0 mi West 24.2 mph 32.2 mph N/A   Overcast
10:55 AM 35.6 °F 24.5 °F 23.0 °F 60% 29.90 in 10.0 mi WNW 20.7 mph 28.8 mph N/A   Overcast
11:15 AM 35.6 °F 26.2 °F 23.0 °F 60% 29.90 in 10.0 mi West 15.0 mph 31.1 mph N/A   Overcast
11:35 AM 35.6 °F 25.2 °F 23.0 °F 60% 29.90 in 10.0 mi WNW 18.4 mph 27.6 mph N/A   Overcast
11:55 AM 35.6 °F 23.7 °F 23.0 °F 60% 29.89 in 10.0 mi WNW 24.2 mph 36.8 mph N/A   Overcast
12:15 PM 37.4 °F 24.4 °F 23.0 °F 56% 29.87 in 10.0 mi WNW 33.4 mph 43.7 mph N/A   Mostly Cloudy
12:35 PM 37.4 °F 26.4 °F 23.0 °F 56% 29.88 in 10.0 mi WNW 23.0 mph 39.1 mph N/A   Scattered Clouds
12:55 PM 37.4 °F 25.4 °F 23.0 °F 56% 29.88 in 10.0 mi WNW 27.6 mph 38.0 mph N/A   Scattered Clouds
1:15 PM 37.4 °F 25.6 °F 24.8 °F 60% 29.88 in 10.0 mi West 26.5 mph 34.5 mph N/A   Mostly Cloudy
1:35 PM 37.4 °F 26.9 °F 24.8 °F 60% 29.88 in 10.0 mi NW 20.7 mph 34.5 mph N/A   Scattered Clouds
1:55 PM 37.4 °F 26.1 °F 23.0 °F 56% 29.89 in 10.0 mi WNW 24.2 mph 33.4 mph N/A   Mostly Cloudy
2:15 PM 39.2 °F 29.6 °F 23.0 °F 52% 29.90 in 10.0 mi West 19.6 mph 34.5 mph N/A   Mostly Cloudy
2:55 PM 37.4 °F 29.3 °F 24.8 °F 60% 29.92 in 10.0 mi WNW 12.7 mph 25.3 mph N/A   Mostly Cloudy
3:15 PM 37.4 °F 27.5 °F 23.0 °F 56% 29.93 in 10.0 mi WNW 18.4 mph 29.9 mph N/A   Mostly Cloudy
3:35 PM 37.4 °F 27.5 °F 23.0 °F 56% 29.94 in 10.0 mi WNW 18.4 mph 26.5 mph N/A   Mostly Cloudy
3:55 PM 35.6 °F 24.0 °F 23.0 °F 60% 29.94 in 10.0 mi WNW 23.0 mph 33.4 mph N/A   Scattered Clouds
4:15 PM 35.6 °F 24.8 °F 23.0 °F 60% 29.94 in 10.0 mi WNW 19.6 mph 36.8 mph N/A   Clear
4:35 PM 33.8 °F 21.3 °F 23.0 °F 65% 29.95 in 10.0 mi WNW 24.2 mph 28.8 mph N/A   Scattered Clouds
4:55 PM 33.8 °F 21.0 °F 23.0 °F 65% 29.95 in 10.0 mi WNW 25.3 mph 34.5 mph N/A   Clear
5:15 PM 33.8 °F 22.5 °F 23.0 °F 65% 29.96 in 10.0 mi West 19.6 mph 25.3 mph N/A   Clear
5:35 PM 32.0 °F 21.2 °F 23.0 °F 69% 29.97 in 10.0 mi WNW 16.1 mph 25.3 mph N/A   Clear
5:55 PM 32.0 °F 21.2 °F 23.0 °F 69% 29.98 in 10.0 mi WNW 16.1 mph - N/A   Scattered Clouds
6:15 PM 32.0 °F 24.2 °F 23.0 °F 69% 29.99 in 10.0 mi West 9.2 mph 16.1 mph N/A   Clear
6:35 PM 32.0 °F 27.5 °F 23.0 °F 69% 30.00 in 10.0 mi SW 4.6 mph - N/A   Scattered Clouds
6:55 PM 32.0 °F 25.6 °F 23.0 °F 69% 30.00 in 10.0 mi West 6.9 mph - N/A   Scattered Clouds
7:15 PM 32.0 °F 27.5 °F 23.0 °F 69% 30.00 in 10.0 mi West 4.6 mph - N/A   Clear
7:35 PM 32.0 °F 24.8 °F 23.0 °F 69% 30.01 in 10.0 mi West 8.1 mph - N/A   Clear
7:55 PM 32.0 °F 24.2 °F 23.0 °F 69% 30.00 in 10.0 mi NW 9.2 mph - N/A   Clear
8:15 PM 32.0 °F 23.0 °F 23.0 °F 69% 30.00 in 10.0 mi WNW 11.5 mph 17.3 mph N/A   Clear
8:35 PM 32.0 °F 23.6 °F 23.0 °F 69% 30.00 in 10.0 mi WNW 10.4 mph - N/A   Clear
8:55 PM 32.0 °F 23.6 °F 23.0 °F 69% 30.00 in 10.0 mi WNW 10.4 mph - N/A   Clear
9:15 PM 32.0 °F 21.6 °F 23.0 °F 69% 30.01 in 10.0 mi WNW 15.0 mph 19.6 mph N/A   Scattered Clouds
9:35 PM 32.0 °F 20.5 °F 23.0 °F 69% 30.01 in 10.0 mi WNW 18.4 mph 21.9 mph N/A   Scattered Clouds
9:55 PM 32.0 °F 20.5 °F 23.0 °F 69% 30.02 in 10.0 mi WNW 18.4 mph - N/A   Clear
10:15 PM 32.0 °F 21.6 °F 23.0 °F 69% 30.02 in 10.0 mi NW 15.0 mph 24.2 mph N/A   Clear
10:35 PM 32.0 °F 22.1 °F 23.0 °F 69% 30.03 in 10.0 mi WNW 13.8 mph - N/A   Clear
10:55 PM 32.0 °F 21.2 °F 21.2 °F 64% 30.03 in 10.0 mi NW 16.1 mph - N/A   Clear
11:15 PM 32.0 °F 20.8 °F 21.2 °F 64% 30.03 in 10.0 mi NW 17.3 mph - N/A   Clear
11:35 PM 32.0 °F 21.2 °F 21.2 °F 64% 30.03 in 10.0 mi NW 16.1 mph - N/A   Clear
11:55 PM 32.0 °F 21.2 °F 21.2 °F 64% 30.02 in 10.0 mi NW 16.1 mph - N/A   Clear